• în România
  • Lista ţărilor
  • Pe 7 zile
  • Temperatura apei
  • Hartă satelitară
  • Meteo pe hartă
  • Widget-uri
  • user-avatar
    Intrare

    Meteo pe oră la Bregenz

    Astăzi, 23 Februarie, Joi

    Timp Temperatura Precipitaţii Vânt Presiune Umiditate
    00:00 -2°C° 0 mm 3 m/s 642 mmHg 88%
    01:00 -2°C° 0 mm 3 m/s 642 mmHg 88%
    02:00 -2°C° 0 mm 3 m/s 642 mmHg 88%
    03:00 -2°C° 0 mm 3 m/s 642 mmHg 87%
    04:00 -2°C° 0 mm 3 m/s 642 mmHg 87%
    05:00 -4°C° 0 mm 3 m/s 641 mmHg 87%
    06:00 -4°C° 0 mm 3 m/s 641 mmHg 86%
    07:00 -4°C° 0 mm 3 m/s 641 mmHg 86%
    08:00 -1°C° 0 mm 3 m/s 641 mmHg 85%
    09:00 +1°C° 0 mm 3 m/s 641 mmHg 84%
    10:00 +4°C° 0 mm 2 m/s 641 mmHg 82%
    11:00 +4°C° 0 mm 3 m/s 640 mmHg 81%
    12:00 +5°C° 0 mm 3 m/s 640 mmHg 80%
    13:00 +7°C° 0 mm 3 m/s 640 mmHg 79%
    14:00 +7°C° 0 mm 3 m/s 639 mmHg 81%
    15:00 +5°C° 0 mm 3 m/s 639 mmHg 82%
    16:00 +5°C° 0 mm 3 m/s 638 mmHg 84%
    17:00 +3°C° 0 mm 3 m/s 638 mmHg 86%
    18:00 +2°C° 0 mm 3 m/s 638 mmHg 88%
    19:00 -1°C° 0 mm 4 m/s 637 mmHg 90%
    20:00 -1°C° 0 mm 4 m/s 637 mmHg 90%
    21:00 -1°C° 0 mm 4 m/s 637 mmHg 90%
    22:00 -1°C° 0 mm 4 m/s 637 mmHg 90%
    23:00 -1°C° 0,7 mm 4 m/s 637 mmHg 91%

    Mâine, 24 Februarie, Vineri

    Timp Temperatura Precipitaţii Vânt Presiune Umiditate
    00:00 -1°C° 0,7 mm 4 m/s 638 mmHg 92%
    01:00 -1°C° 0,7 mm 4 m/s 638 mmHg 92%
    02:00 -2°C° 1,3 mm 4 m/s 638 mmHg 93%
    03:00 -2°C° 1,3 mm 4 m/s 638 mmHg 94%
    04:00 -3°C° 1,3 mm 4 m/s 637 mmHg 94%
    05:00 -3°C° 1,2 mm 4 m/s 638 mmHg 95%
    06:00 -2°C° 1,2 mm 3 m/s 638 mmHg 95%
    07:00 -4°C° 1,2 mm 3 m/s 638 mmHg 96%
    08:00 -4°C° 0,8 mm 3 m/s 638 mmHg 95%
    09:00 -4°C° 0,8 mm 3 m/s 639 mmHg 95%
    10:00 -4°C° 0,8 mm 3 m/s 639 mmHg 94%
    11:00 -4°C° 0,4 mm 3 m/s 639 mmHg 93%
    12:00 -4°C° 0,4 mm 3 m/s 639 mmHg 92%
    13:00 -2°C° 0,4 mm 3 m/s 639 mmHg 91%
    14:00 -2°C° 0,4 mm 3 m/s 640 mmHg 92%
    15:00 -4°C° 0,4 mm 3 m/s 640 mmHg 92%
    16:00 -4°C° 0,4 mm 3 m/s 640 mmHg 93%
    17:00 -4°C° 0,5 mm 2 m/s 641 mmHg 94%
    18:00 -4°C° 0,5 mm 2 m/s 641 mmHg 95%
    19:00 -5°C° 0,5 mm 2 m/s 642 mmHg 96%
    20:00 -3°C° 0,3 mm 1 m/s 642 mmHg 97%
    21:00 -4°C° 0,3 mm 1 m/s 643 mmHg 97%
    22:00 -4°C° 0,3 mm 1 m/s 643 mmHg 97%
    23:00 -6°C° 0,1 mm 1 m/s 643 mmHg 97%

    Poimâine, 25 Februarie, Sâmbătă

    Timp Temperatura Precipitaţii Vânt Presiune Umiditate
    00:00 -6°C° 0,1 mm 1 m/s 643 mmHg 97%
    01:00 -6°C° 0,1 mm 1 m/s 644 mmHg 97%
    02:00 -7°C° 0 mm 1 m/s 644 mmHg 97%
    03:00 -8°C° 0 mm 1 m/s 644 mmHg 98%
    04:00 -9°C° 0 mm 0 m/s 644 mmHg 98%
    05:00 -9°C° 0 mm 1 m/s 644 mmHg 97%
    06:00 -10°C° 0 mm 1 m/s 644 mmHg 97%
    07:00 -10°C° 0 mm 1 m/s 644 mmHg 97%
    08:00 -7°C° 0 mm 1 m/s 645 mmHg 94%
    09:00 -4°C° 0 mm 1 m/s 645 mmHg 91%
    10:00 -2°C° 0 mm 1 m/s 646 mmHg 89%
    11:00 -1°C° 0 mm 1 m/s 646 mmHg 88%
    12:00 0°C° 0 mm 1 m/s 646 mmHg 87%
    13:00 +1°C° 0 mm 1 m/s 647 mmHg 87%
    14:00 +2°C° 0 mm 1 m/s 646 mmHg 88%
    15:00 +2°C° 0 mm 1 m/s 646 mmHg 89%
    16:00 +1°C° 0 mm 0 m/s 646 mmHg 90%
    17:00 -1°C° 0 mm 1 m/s 645 mmHg 92%
    18:00 -3°C° 0 mm 1 m/s 644 mmHg 93%
    19:00 -7°C° 0 mm 1 m/s 644 mmHg 95%
    20:00 -7°C° 0 mm 1 m/s 644 mmHg 93%
    21:00 -6°C° 0 mm 1 m/s 644 mmHg 90%
    22:00 -6°C° 0 mm 1 m/s 644 mmHg 88%
    23:00 -4°C° 0 mm 1 m/s 645 mmHg 88%

    26 Februarie, Duminică

    Timp Temperatura Precipitaţii Vânt Presiune Umiditate
    00:00 -4°C° 0 mm 1 m/s 645 mmHg 88%
    01:00 -5°C° 0 mm 2 m/s 645 mmHg 89%
    02:00 -5°C° 0 mm 2 m/s 645 mmHg 89%
    03:00 -5°C° 0 mm 2 m/s 644 mmHg 88%
    04:00 -5°C° 0 mm 2 m/s 644 mmHg 88%
    05:00 -5°C° 0 mm 2 m/s 644 mmHg 88%
    06:00 -5°C° 0 mm 2 m/s 644 mmHg 87%
    07:00 -5°C° 0 mm 2 m/s 644 mmHg 87%
    08:00 -3°C° 0 mm 2 m/s 644 mmHg 87%
    09:00 -1°C° 0 mm 2 m/s 645 mmHg 88%
    10:00 +3°C° 0 mm 1 m/s 645 mmHg 88%
    11:00 +4°C° 0 mm 1 m/s 645 mmHg 87%
    12:00 +5°C° 0 mm 1 m/s 645 mmHg 85%
    13:00 +6°C° 0 mm 1 m/s 645 mmHg 83%
    14:00 +6°C° 0 mm 1 m/s 645 mmHg 85%
    15:00 +5°C° 0 mm 1 m/s 645 mmHg 87%
    16:00 +5°C° 0 mm 1 m/s 644 mmHg 89%
    17:00 +3°C° 0 mm 1 m/s 644 mmHg 89%
    18:00 +1°C° 0 mm 1 m/s 643 mmHg 90%
    19:00 -2°C° 0 mm 1 m/s 643 mmHg 90%
    20:00 -2°C° 0 mm 1 m/s 643 mmHg 88%
    21:00 -2°C° 0 mm 1 m/s 643 mmHg 86%
    22:00 -2°C° 0 mm 1 m/s 642 mmHg 85%
    23:00 -2°C° 0 mm 1 m/s 642 mmHg 82%

    27 Februarie, Luni

    Timp Temperatura Precipitaţii Vânt Presiune Umiditate
    00:00 -2°C° 0 mm 1 m/s 642 mmHg 80%
    01:00 -2°C° 0 mm 1 m/s 642 mmHg 78%
    02:00 -2°C° 0 mm 1 m/s 642 mmHg 80%
    03:00 -2°C° 0 mm 1 m/s 642 mmHg 83%
    04:00 -2°C° 0 mm 1 m/s 641 mmHg 85%
    05:00 -4°C° 0 mm 2 m/s 641 mmHg 85%
    06:00 -4°C° 0 mm 2 m/s 641 mmHg 86%
    07:00 -4°C° 0 mm 2 m/s 641 mmHg 86%
    08:00 -2°C° 0 mm 2 m/s 641 mmHg 85%
    09:00 +1°C° 0 mm 2 m/s 641 mmHg 85%
    10:00 +4°C° 0 mm 1 m/s 642 mmHg 84%
    11:00 +5°C° 0 mm 1 m/s 641 mmHg 82%
    12:00 +6°C° 0 mm 1 m/s 641 mmHg 80%
    13:00 +7°C° 0 mm 1 m/s 641 mmHg 78%
    14:00 +7°C° 0 mm 1 m/s 640 mmHg 81%
    15:00 +7°C° 0 mm 1 m/s 640 mmHg 83%
    16:00 +6°C° 0 mm 1 m/s 639 mmHg 86%
    17:00 +4°C° 0 mm 2 m/s 639 mmHg 88%
    18:00 +2°C° 0 mm 2 m/s 638 mmHg 90%
    19:00 -1°C° 0 mm 2 m/s 638 mmHg 92%
    20:00 -1°C° 0 mm 3 m/s 638 mmHg 91%
    21:00 -2°C° 0 mm 3 m/s 637 mmHg 91%
    22:00 -2°C° 0 mm 3 m/s 637 mmHg 91%
    23:00 -2°C° 0 mm 3 m/s 637 mmHg 91%

    28 Februarie, Marţi

    Timp Temperatura Precipitaţii Vânt Presiune Umiditate
    00:00 -2°C° 0 mm 3 m/s 637 mmHg 90%
    01:00 -2°C° 0 mm 3 m/s 637 mmHg 90%
    02:00 -3°C° 0,1 mm 2 m/s 636 mmHg 91%
    03:00 -3°C° 0,1 mm 2 m/s 636 mmHg 91%
    04:00 -3°C° 0,1 mm 2 m/s 635 mmHg 92%
    05:00 -3°C° 0,2 mm 2 m/s 635 mmHg 92%
    06:00 -2°C° 0,2 mm 2 m/s 635 mmHg 91%
    07:00 -2°C° 0,2 mm 2 m/s 634 mmHg 91%
    08:00 -1°C° 0,5 mm 2 m/s 634 mmHg 90%
    09:00 +1°C° 0,5 mm 2 m/s 634 mmHg 89%
    10:00 +2°C° 0,5 mm 2 m/s 634 mmHg 88%
    11:00 +2°C° 1,2 mm 2 m/s 634 mmHg 90%
    12:00 +2°C° 1,2 mm 2 m/s 634 mmHg 92%
    13:00 +2°C° 1,2 mm 2 m/s 633 mmHg 95%
    14:00 0°C° 2,4 mm 3 m/s 633 mmHg 95%
    15:00 -1°C° 2,4 mm 3 m/s 633 mmHg 94%
    16:00 -2°C° 2,4 mm 4 m/s 633 mmHg 94%
    17:00 -2°C° 0,7 mm 3 m/s 633 mmHg 95%
    18:00 -4°C° 0,7 mm 3 m/s 633 mmHg 95%
    19:00 -4°C° 0,7 mm 2 m/s 633 mmHg 95%
    20:00 -4°C° 0,2 mm 2 m/s 633 mmHg 95%
    21:00 -4°C° 0,2 mm 2 m/s 633 mmHg 95%
    22:00 -5°C° 0,2 mm 2 m/s 633 mmHg 94%
    23:00 -5°C° 0 mm 2 m/s 633 mmHg 94%
    Arată mai mult